Weather History for KD50 - January, 2014

Change the Weather History Date:

Tuesday, January 14, 2014

  Actual Average (KISN) Record (KISN)
Temperature  
Mean Temperature 14 °F 10 °F  
Max Temperature 19 °F 21 °F 52 °F (2006)
Min Temperature 10 °F 0 °F -41 °F (1907)
Degree Days  
Heating Degree Days 50 54  
Month to date heating degree days 766  
Since 1 July heating degree days 4513  
Cooling Degree Days 0 0  
Month to date cooling degree days 0  
Year to date cooling degree days 0  
Moisture  
Dew Point 11 °F    
Average Humidity 80    
Maximum Humidity 93    
Minimum Humidity 68    
Precipitation  
Precipitation 0.00 in 0.02 in 0.23 in (1976)
Month to date precipitation 0.30  
Year to date precipitation 0.30  
Sea Level Pressure  
Sea Level Pressure 30.13 in    
Wind  
Wind Speed 20 mph (WNW)    
Max Wind Speed 33 mph    
Max Gust Speed 41 mph    
Visibility 10 miles    
Events      
T = Trace of Precipitation, MM = Missing Value Source: NWS Daily Summary

Daily Weather History Graph

Daily Weather History Graph

Search for Another Location

Airport or City:

Trip Planner

Search our weather history database for the weather conditions in past years. The results will help you decide how hot, cold, wet, or windy it might be!

Date:

Astronomy

Jan. 14, 2014 Rise Set
Actual Time 8:42 AM CST 5:22 PM CST
Civil Twilight 8:06 AM CST 5:58 PM CST
Nautical Twilight 7:26 AM CST 6:38 PM CST
Astronomical Twilight 6:48 AM CST 7:16 PM CST
Moon 4:32 PM CST (1/14) 7:16 AM CST (1/14)
Length of Visible Light 9h 52m
Length of Day
8h 40m
Waxing Gibbous, 98% of the Moon is Illuminated
Jan 14
Waxing Gibbous
Jan 15
Full
Jan 23
Last Quarter
Jan 30
New
Feb 6
First Quarter

Hourly Weather History & Observations

Time (CST) Temp. Windchill Dew Point Humidity Pressure Visibility Wind Dir Wind Speed Gust Speed Precip Events Conditions
12:15 AM 17.6 °F 0.1 °F 14.0 °F 86% 29.89 in 10.0 mi WNW 23.0 mph 28.8 mph N/A   Unknown
12:35 AM 17.6 °F -0.3 °F 14.0 °F 86% 29.90 in 10.0 mi NW 24.2 mph 29.9 mph N/A   Unknown
12:55 AM 17.6 °F -1.0 °F 14.0 °F 86% 29.90 in 10.0 mi NW 26.5 mph 32.2 mph N/A   Unknown
1:15 AM 17.6 °F -2.8 °F 12.2 °F 79% 29.91 in 10.0 mi NW 33.4 mph 39.1 mph N/A   Unknown
1:35 AM 17.6 °F -1.3 °F 12.2 °F 79% 29.91 in 10.0 mi NW 27.6 mph 35.7 mph N/A   Unknown
1:55 AM 17.6 °F -2.2 °F 12.2 °F 79% 29.92 in 10.0 mi NW 31.1 mph 38.0 mph N/A   Unknown
2:15 AM 17.6 °F -2.5 °F 12.2 °F 79% 29.93 in 10.0 mi NW 32.2 mph 41.4 mph N/A   Unknown
2:35 AM 17.6 °F -1.9 °F 10.4 °F 73% 29.95 in 10.0 mi NW 29.9 mph 40.3 mph N/A   Unknown
2:55 AM 17.6 °F -1.9 °F 10.4 °F 73% 29.97 in 10.0 mi NW 29.9 mph 39.1 mph N/A   Unknown
3:15 AM 15.8 °F -4.1 °F 10.4 °F 79% 29.98 in 10.0 mi NW 28.8 mph 38.0 mph N/A   Unknown
3:35 AM 15.8 °F -3.7 °F 8.6 °F 73% 30.00 in 10.0 mi NW 27.6 mph 36.8 mph N/A   Unknown
3:55 AM 15.8 °F -2.3 °F 8.6 °F 73% 30.01 in 10.0 mi NW 23.0 mph 33.4 mph N/A   Unknown
4:15 AM 15.8 °F -3.7 °F 10.4 °F 79% 30.02 in 10.0 mi NW 27.6 mph 33.4 mph N/A   Unknown
4:35 AM 15.8 °F -4.1 °F 10.4 °F 79% 30.03 in 10.0 mi NW 28.8 mph 34.5 mph N/A   Unknown
4:55 AM 15.8 °F -3.1 °F 10.4 °F 79% 30.04 in 10.0 mi NW 25.3 mph 32.2 mph N/A   Unknown
5:15 AM 15.8 °F -3.1 °F 8.6 °F 73% 30.05 in 10.0 mi NW 25.3 mph 34.5 mph N/A   Unknown
5:35 AM 14.0 °F -5.8 °F 8.6 °F 79% 30.06 in 10.0 mi NW 26.5 mph 34.5 mph N/A   Unknown
5:55 AM 14.0 °F -3.9 °F 8.6 °F 79% 30.08 in 10.0 mi NW 20.7 mph 28.8 mph N/A   Unknown
6:15 AM 14.0 °F -4.7 °F 8.6 °F 79% 30.09 in 10.0 mi NW 23.0 mph 28.8 mph N/A   Unknown
6:35 AM 14.0 °F -4.3 °F 8.6 °F 79% 30.10 in 10.0 mi NW 21.9 mph 25.3 mph N/A   Unknown
6:55 AM 14.0 °F -3.0 °F 6.8 °F 73% 30.10 in 10.0 mi NW 18.4 mph 25.3 mph N/A   Unknown
7:15 AM 12.2 °F -5.3 °F 6.8 °F 79% 30.12 in 10.0 mi NW 18.4 mph - N/A   Unknown
7:35 AM 10.4 °F -7.2 °F 6.8 °F 85% 30.13 in 10.0 mi NW 17.3 mph - N/A   Unknown
7:55 AM 10.4 °F -8.2 °F 6.8 °F 85% 30.13 in 10.0 mi NW 19.6 mph - N/A   Unknown
8:15 AM 10.4 °F -8.2 °F 6.8 °F 85% 30.14 in 10.0 mi NW 19.6 mph 26.5 mph N/A   Unknown
8:35 AM 10.4 °F -6.0 °F 5.0 °F 79% 30.15 in 10.0 mi NW 15.0 mph - N/A   Unknown
8:55 AM 10.4 °F -6.6 °F 6.8 °F 85% 30.15 in 10.0 mi NW 16.1 mph - N/A   Unknown
9:15 AM 14.0 °F -3.9 °F 6.8 °F 73% 30.15 in 10.0 mi NW 20.7 mph 28.8 mph N/A   Unknown
9:35 AM 14.0 °F -3.9 °F 8.6 °F 79% 30.17 in 10.0 mi NW 20.7 mph 28.8 mph N/A   Unknown
9:55 AM 15.8 °F -2.3 °F 8.6 °F 73% 30.19 in 10.0 mi NW 23.0 mph 31.1 mph N/A   Unknown
10:15 AM 15.8 °F -0.6 °F 8.6 °F 73% 30.21 in 10.0 mi NW 18.4 mph - N/A   Unknown
10:35 AM 15.8 °F -0.6 °F 10.4 °F 79% 30.22 in 10.0 mi NW 18.4 mph - N/A   Unknown
10:55 AM 15.8 °F 0.3 °F 10.4 °F 79% 30.22 in 10.0 mi NW 16.1 mph 21.9 mph N/A   Unknown
11:15 AM 17.6 °F 1.7 °F 10.4 °F 73% 30.23 in 10.0 mi NNW 18.4 mph 25.3 mph N/A   Unknown
11:35 AM 17.6 °F 1.3 °F 10.4 °F 73% 30.23 in 10.0 mi NNW 19.6 mph 25.3 mph N/A   Unknown
11:55 AM 17.6 °F 2.2 °F 10.4 °F 73% 30.23 in 10.0 mi NNW 17.3 mph - N/A   Unknown
12:15 PM 17.6 °F 1.3 °F 10.4 °F 73% 30.23 in 10.0 mi NNW 19.6 mph - N/A   Unknown
12:35 PM 17.6 °F 2.7 °F 8.6 °F 68% 30.24 in 10.0 mi NNW 16.1 mph 23.0 mph N/A   Unknown
12:55 PM 17.6 °F 2.2 °F 8.6 °F 68% 30.24 in 10.0 mi NNW 17.3 mph - N/A   Unknown
1:15 PM 17.6 °F 2.2 °F 8.6 °F 68% 30.25 in 10.0 mi NW 17.3 mph 23.0 mph N/A   Unknown
1:35 PM 17.6 °F 2.7 °F 8.6 °F 68% 30.25 in 10.0 mi NW 16.1 mph 23.0 mph N/A   Unknown
1:55 PM 17.6 °F 1.7 °F 8.6 °F 68% 30.26 in 10.0 mi NW 18.4 mph - N/A   Unknown
2:15 PM 17.6 °F 3.2 °F 10.4 °F 73% 30.25 in 10.0 mi NW 15.0 mph 20.7 mph N/A   Unknown
2:35 PM 17.6 °F 3.2 °F 8.6 °F 68% 30.25 in 10.0 mi NW 15.0 mph - N/A   Unknown
2:55 PM 17.6 °F 3.2 °F 8.6 °F 68% 30.25 in 10.0 mi NW 15.0 mph - N/A   Unknown
3:15 PM 15.8 °F 1.4 °F 8.6 °F 73% 30.25 in 10.0 mi NW 13.8 mph - N/A   Unknown
3:35 PM 15.8 °F 0.9 °F 8.6 °F 73% 30.26 in 10.0 mi NW 15.0 mph - N/A   Unknown
3:55 PM 15.8 °F 2.1 °F 10.4 °F 79% 30.26 in 10.0 mi WNW 12.7 mph - N/A   Unknown
4:15 PM 15.8 °F 3.4 °F 10.4 °F 79% 30.25 in 10.0 mi NW 10.4 mph - N/A   Unknown
4:35 PM 15.8 °F 6.1 °F 10.4 °F 79% 30.25 in 10.0 mi NW 6.9 mph - N/A   Unknown
4:55 PM 15.8 °F 8.6 °F 10.4 °F 79% 30.25 in 10.0 mi WNW 4.6 mph - N/A   Unknown
5:15 PM 15.8 °F - 10.4 °F 79% 30.26 in 10.0 mi Calm Calm - N/A   Unknown
5:35 PM 15.8 °F - 10.4 °F 79% 30.25 in 10.0 mi Calm Calm - N/A   Unknown
5:55 PM 14.0 °F 5.1 °F 10.4 °F 86% 30.23 in 10.0 mi WSW 5.8 mph - N/A   Unknown
6:15 PM 14.0 °F 6.5 °F 10.4 °F 86% 30.22 in 10.0 mi WSW 4.6 mph - N/A   Unknown
6:35 PM 14.0 °F 5.1 °F 10.4 °F 86% 30.23 in 10.0 mi SW 5.8 mph - N/A   Unknown
6:55 PM 14.0 °F 5.1 °F 10.4 °F 86% 30.23 in 10.0 mi SW 5.8 mph - N/A   Unknown
7:15 PM 15.8 °F 7.2 °F 12.2 °F 86% 30.22 in 10.0 mi SW 5.8 mph - N/A   Unknown
7:35 PM 15.8 °F 6.1 °F 14.0 °F 93% 30.21 in 10.0 mi SW 6.9 mph - N/A   Unknown
7:55 PM 15.8 °F 5.1 °F 14.0 °F 93% 30.20 in 10.0 mi SW 8.1 mph - N/A   Unknown
8:35 PM 15.8 °F 8.6 °F 14.0 °F 93% 30.17 in 10.0 mi SW 4.6 mph - N/A   Unknown
8:55 PM 15.8 °F 8.6 °F 14.0 °F 93% 30.15 in 10.0 mi SSW 4.6 mph - N/A   Unknown
9:15 PM 15.8 °F 8.6 °F 14.0 °F 93% 30.14 in 10.0 mi South 4.6 mph - N/A   Unknown
9:35 PM 17.6 °F 9.3 °F 14.0 °F 86% 30.13 in 10.0 mi South 5.8 mph - N/A   Unknown
9:55 PM 15.8 °F 6.1 °F 14.0 °F 93% 30.12 in 10.0 mi SSW 6.9 mph - N/A   Unknown
10:15 PM 15.8 °F 5.1 °F 14.0 °F 93% 30.10 in 10.0 mi SSW 8.1 mph - N/A   Unknown
10:35 PM 17.6 °F 6.4 °F 14.0 °F 86% 30.08 in 10.0 mi South 9.2 mph - N/A   Unknown
10:55 PM 17.6 °F 5.0 °F 15.8 °F 93% 30.07 in 10.0 mi South 11.5 mph - N/A   Unknown
11:15 PM 17.6 °F 4.3 °F 15.8 °F 93% 30.06 in 10.0 mi South 12.7 mph - N/A   Unknown
11:35 PM 19.4 °F 6.6 °F 17.6 °F 93% 30.03 in 10.0 mi SSW 12.7 mph - N/A   Unknown
11:55 PM 19.4 °F 6.6 °F 17.6 °F 93% 30.00 in 10.0 mi South 12.7 mph - N/A   Unknown